Flag for Brazil Weather past 2 weeks in Florianópolis, Santa Catarina, Brazil

Now
70 °F

Passing clouds.


Feels Like: 70 °F
Forecast: 66 / 69 °F
Wind: 16 mph from Northwest

Location: Florianopolis Aeroporto

Current Time: Sep 24, 2014 at 1:28:33 AM

Latest Report: Sep 24, 2014 at 1:00 AM


Visibility: N/A

Pressure: 29.95 "Hg

Humidity: 78%

Dew point: 63 °F

Location of FlorianópolisLocation

Historic Weather in Florianópolis — Graph

°F

Florianópolis temperature yesterday

Maximum temperature yesterday: 75 °F (at 1:00 PM)
Minimum temperature yesterday: 63 °F (at 3:00 AM)
Average temperature yesterday: 69 °F

Past Weeks' High & Low Weather Summary

 TemperatureHumidityPressure
High86 °F (Sep 10, 1:00 PM)100% (Sep 18, 12:00 PM)30.21 "Hg (Sep 18, 12:00 PM)
Low46 °F (Sep 18, 12:00 PM)40% (Sep 10, 1:00 PM)29.68 "Hg (Sep 10, 3:00 PM)
Average68 °F76%30.00 "Hg
* Reported Midnight between Sep 8 and Sep 9 — Midnight between Sep 23 and Sep 24, Florianópolis, Weather by CustomWeather, © 2014

Note: Actual official high and low records may vary slightly from our data, if they occured in-between our weather recording intervals... More about our weather records

Advertising

Florianópolis weather history for previous 24 hours

 ConditionsComfort  
Time TempWeatherWind HumidityBarometerVisibility
12:00 AM
Sep 24
70 °FPassing clouds.15 mph78%29.98 "HgN/A
11:00 PM
Sep 23
70 °FPassing clouds.13 mph78%29.98 "HgN/A
10:00 PM70 °FPassing clouds.14 mph78%30.01 "HgN/A
9:00 PM70 °FPassing clouds.15 mph73%30.01 "HgN/A
8:00 PM70 °FPassing clouds.15 mph73%30.01 "HgN/A
7:00 PM70 °FPassing clouds.13 mph73%N/AN/A
6:00 PM70 °FPassing clouds.16 mph73%29.98 "HgN/A
5:00 PM72 °FScattered clouds.18 mph69%29.98 "HgN/A
4:00 PM73 °FScattered clouds.18 mph65%29.98 "HgN/A
3:00 PM73 °FScattered clouds.18 mph100%29.98 "HgN/A
2:00 PM75 °FScattered clouds.17 mph57%30.01 "HgN/A
1:00 PM75 °FScattered clouds.17 mph61%30.04 "HgN/A
12:00 PM72 °FScattered clouds.18 mph65%30.07 "HgN/A
11:00 AM72 °FScattered clouds.13 mph65%30.09 "HgN/A
10:00 AM70 °FBroken clouds.10 mph69%30.12 "HgN/A
9:00 AM70 °FScattered clouds.8 mph69%30.12 "HgN/A
8:00 AM66 °FBroken clouds.8 mph78%30.12 "HgN/A
7:00 AM64 °FScattered showers. Broken clouds.8 mph83%30.09 "HgN/A
6:00 AM63 °FScattered showers. Partly sunny.6 mph88%30.09 "HgN/A
5:00 AM63 °FPassing clouds.5 mph88%30.09 "Hg4 mi
4:00 AM63 °FLight rain. Passing clouds.5 mph88%30.09 "Hg4 mi
3:00 AM63 °FLight rain. Passing clouds.5 mph88%30.09 "Hg4 mi
2:00 AM64 °FPassing clouds.3 mph83%30.12 "HgN/A
1:00 AM64 °FPassing clouds.2 mph83%30.12 "HgN/A
Weather by CustomWeather, © 2014

See weather overviewHow to use our weather pages